Regional Weather Roundup
Issued by NWS

Home | Current Version | Previous Version | Text Only | Print | Product List | Glossary On
Versions: 1 2 3 4 5 6 7 8 9 10 11 12 13 14 15 16 17 18 19 20 21 22 23 24 25 26 27 28 29 30 31 32 33 34 35 36 37 38 39 40 41 42 43 44 45 46 47 48 49 50
000
ASUS43 KLMK 230610
RWRKY
KENTUCKY REGIONAL WEATHER ROUNDUP
NATIONAL WEATHER SERVICE LOUISVILLE KY
200 AM EDT TUE AUG 23 2016

NOTE "FAIR" INDICATES FEW OR NO CLOUDS BELOW 12,000 FEET
WITH NO SIGNIFICANT WEATHER AND/OR OBSTRUCTIONS TO VISIBILITY.

KYZ001>023-026-027-061>063-070>075-230700-
WESTERN AND SOUTH CENTRAL KENTUCKY

CITY           SKY/WX    TMP DP  RH WIND       PRES   REMARKS
PADUCAH        CLEAR     63  60  90 CALM      30.18S
HENDERSON      CLEAR     61  57  88 CALM      30.19F
OWENSBORO      CLEAR     65  64  96 CALM      30.21F
HOPKINSVILLE   CLEAR     66  62  87 CALM      30.21R
BOWLING GREEN  CLEAR     63  61  93 CALM      30.22S
GLASGOW        CLEAR     61  61 100 CALM      30.23S
$$

KYZ024-025-028>034-038-045-046-053-230700-
NORTH CENTRAL KENTUCKY

CITY           SKY/WX    TMP DP  RH WIND       PRES   REMARKS
LOUISVILLE/SDF CLEAR     68  60  75 CALM      30.23S
LOUISVILLE/LOU CLEAR     66  60  81 CALM      30.24S
FORT KNOX      CLEAR     60  59  94 CALM      30.22S
$$

KYZ035>037-039>044-047>052-055>060-089>105-230700-
NORTHEAST KENTUCKY

CITY           SKY/WX    TMP DP  RH WIND       PRES   REMARKS
LEXINGTON      CLEAR     62  57  83 CALM      30.26R
COVINGTON      CLEAR     63  58  83 CALM      30.25R
FRANKFORT      CLEAR     62  58  86 CALM      30.24S
$$

KYZ054-064>069-076>088-106>120-230700-
SOUTHEAST KENTUCKY

CITY           SKY/WX    TMP DP  RH WIND       PRES   REMARKS
JACKSON        CLEAR     63  57  81 CALM      30.27R
LONDON         CLEAR     60  57  89 CALM      30.26S
SOMERSET       CLEAR     59  59 100 CALM      30.26S
MIDDLESBORO    CLEAR     59  59 100 CALM      30.28R
MONTICELLO     FOG      N/A N/A N/A W9        30.26S VSB 3/4
$$





USA.gov is the U.S. government's official web portal to all federal, state and local government web resources and services.